Temp
65 67 68 68 69 69 69 69 69 69 69 69 69 70 70 68 67 68 70 70 70 70 69 68 68 68 68 68 67 66 65 65 65 65 65 65 65 64 64 63 62 62 61 60 59 58 58 57 56 55 52 47
64 65 66 66 66 66 67 67 68 67 68 68 66 65 63 63 64 66 68 68 69 69 69 67 67 67 67 67 66 65 65 65 64 64 64 64 64 63 63 62 61 61 60 59 58 57 56 56 55 54 51 45
62 62 63 64 64 64 64 65 64 64 64 62 60 59 59 59 59 59 62 64 66 67 64 62 64 65 66 66 65 65 64 64 63 63 63 63 62 62 62 61 60 60 59 58 57 56 55 54 53 52 46 44
59 61 61 61 62 62 62 62 61 61 59 57 57 56 56 55 52 52 54 59 57 59 59 60 58 61 65 65 65 64 64 63 63 62 62 62 62 61 60 60 59 59 58 57 56 55 53 51 49 42 41 42
57 60 60 60 61 60 60 59 58 57 56 54 54 52 52 50 47 45 46 49 51 54 53 57 58 58 63 65 64 63 63 62 62 62 61 61 61 60 59 57 57 57 56 55 54 53 51 48 41 40 40 41
54 56 58 56 56 57 57 56 54 51 50 50 48 51 48 46 46 44 45 46 49 49 50 51 57 57 61 64 63 63 62 61 61 61 60 59 58 57 55 52 42 44 50 53 52 50 48 40 38 39 39 40
50 51 52 52 53 53 53 52 50 49 49 47 47 46 45 44 44 44 45 46 48 48 52 51 53 54 56 61 62 61 60 60 60 59 59 57 56 53 50 40 37 36 35 38 46 44 39 37 37 38 39 40
49 48 48 47 47 47 47 48 48 48 47 46 45 43 43 43 43 43 43 47 47 46 44 45 47 50 50 51 52 51 47 51 54 55 55 54 50 44 39 36 35 35 35 34 35 36 36 35 36 37 38 38
47 47 47 46 45 45 45 45 45 45 44 44 44 42 42 42 43 43 45 45 44 42 42 40 39 39 40 40 39 45 37 37 39 39 35 37 38 35 37 35 34 35 35 35 35 35 35 36 36 37 37 36
48 48 47 45 45 44 44 44 43 42 43 42 42 44 45 45 45 45 44 43 43 41 39 38 37 36 36 37 37 38 35 34 34 33 33 35 35 33 34 34 33 33 34 34 33 34 33 35 35 35 35 35
46 46 46 45 44 45 42 43 43 41 41 42 43 43 44 44 43 43 42 41 39 38 36 37 35 34 33 35 35 35 35 33 33 33 33 32 31 31 33 32 31 31 30 30 32 31 32 32 33 34 34 34
44 43 44 45 46 44 44 44 42 41 40 40 41 42 42 42 41 41 39 37 37 34 35 35 33 31 34 33 32 33 33 34 31 31 31 32 30 33 31 32 31 31 31 30 30 32 31 31 31 32 32 33
43 43 43 44 42 42 46 42 41 41 40 40 40 41 41 41 39 37 37 35 34 33 35 34 33 32 33 32 31 32 32 32 33 32 31 32 30 29 30 30 30 31 30 29 29 30 31 31 31 30 31 32
43 42 43 42 42 42 43 40 40 40 39 40 41 41 41 41 40 39 37 35 33 35 36 35 33 34 32 32 30 32 34 32 32 31 30 29 30 30 30 31 33 31 30 30 30 29 31 32 31 29 30 30
42 42 42 42 41 42 41 40 41 40 40 40 41 41 40 40 41 39 37 35 32 33 34 34 34 33 32 32 31 32 30 31 31 30 32 32 30 30 29 29 30 30 30 29 31 33 31 32 31 31 29 30
42 42 41 41 40 41 40 41 39 40 41 41 40 40 39 39 40 40 38 35 32 33 33 33 33 32 32 32 30 31 29 31 30 30 29 28 29 28 29 29 28 29 30 30 30 31 31 31 32 31 29 30
42 41 41 40 40 40 41 41 41 41 41 41 41 41 40 39 39 41 39 35 34 35 32 33 32 32 32 31 29 30 30 30 29 30 30 30 29 28 29 31 32 31 29 30 31 30 30 29 31 30 30 30
41 40 40 41 40 40 40 39 40 41 40 40 40 41 40 39 39 40 38 37 33 33 32 32 31 32 31 30 30 30 30 30 30 30 31 31 31 36 31 32 31 33 34 31 29 30 29 30 29 29 30 30
41 39 40 39 39 39 39 40 40 39 39 40 40 40 40 40 40 39 36 34 34 33 33 32 32 30 31 30 30 30 31 29 29 30 31 31 32 31 29 29 32 31 30 30 31 30 30 29 29 30 30 30
40 40 38 38 40 38 37 38 38 37 39 41 40 40 39 39 40 39 37 35 35 36 35 35 34 33 30 30 30 30 30 31 32 30 31 31 30 33 32 32 31 29 30 29 29 29 28 27 31 30 29 30
37 38 37 37 37 36 37 37 37 37 38 40 40 40 40 39 39 39 38 37 36 38 37 36 37 34 31 30 30 30 30 31 31 30 33 31 31 31 31 30 29 30 29 29 29 28 28 28 30 29 32 31
37 37 37 36 35 37 36 36 37 36 37 39 40 39 40 39 39 39 38 37 36 36 36 36 37 35 33 32 31 30 30 30 29 30 31 32 29 29 31 29 29 30 28 29 30 29 29 30 29 29 29 30
36 35 34 32 33 35 34 34 34 35 35 37 38 39 40 39 40 40 38 37 36 35 35 35 35 35 34 34 33 31 30 30 31 31 30 32 31 30 29 30 29 31 30 30 30 30 31 29 30 30 29 30
34 34 35 34 33 35 34 33 35 33 34 34 35 36 38 39 39 39 39 38 37 37 36 35 35 36 34 34 33 32 31 30 29 31 30 29 30 30 30 30 28 28 30 30 29 31 32 29 28 28 29 29
33 32 32 32 32 34 33 33 34 33 33 32 33 33 34 36 36 35 35 35 35 36 37 35 34 34 32 32 33 32 33 31 30 29 30 29 31 30 29 29 28 27 28 32 31 29 29 31 29 31 31 30
33 32 32 31 32 30 31 32 32 34 32 33 32 32 31 32 31 32 32 34 33 34 33 33 32 32 32 31 31 31 31 30 32 31 29 29 31 30 30 29 27 28 32 28 28 31 27 24 28 31 32 31
33 32 31 32 32 31 31 31 32 32 31 31 32 31 31 31 30 30 30 30 31 30 30 30 30 30 29 29 30 31 29 29 29 28 28 27 29 29 29 29 28 27 31 28 22 24 27 24 29 30 30 29
30 32 31 31 32 33 35 33 33 32 33 32 32 32 31 31 30 30 30 30 29 29 29 28 28 28 28 28 28 29 29 29 29 28 27 26 26 28 27 26 26 29 27 24 26 24 27 18 21 24 27 28
31 32 31 31 33 32 31 31 30 29 29 30 30 29 28 27 28 29 28 28 28 30 29 28 28 28 28 27 27 29 28 28 29 28 28 28 26 27 29 28 26 25 26 24 27 26 19 17 20 22 23 24
29 29 28 28 27 26 26 24 24 23 24 25 25 25 27 27 26 26 26 26 26 26 27 27 28 28 27 24 24 26 28 27 28 27 27 27 27 27 28 29 27 23 25 27 27 24 26 28 29 24 20 27
28 27 27 26 25 24 24 23 23 25 25 25 25 26 25 25 26 26 25 25 25 25 26 26 26 26 27 27 27 28 25 25 25 26 27 28 28 28 28 28 27 28 28 25 23 26 27 23 19 16 26 26
MSLP
1018.45 1018.65 1018.89 1019.01 1019.25 1019.45 1019.61 1019.77 1019.93 1020.17 1020.29 1020.37 1020.41 1020.41 1020.53 1020.61 1020.65 1020.73 1020.77 1020.81 1020.89 1021.01 1021.17 1021.33 1021.49 1021.69 1021.85 1022.01 1022.21 1022.49 1022.69 1022.73 1022.73 1022.77 1022.73 1022.73 1022.77 1022.89 1022.97 1023.05 1023.09 1023.13 1023.21 1023.25 1023.33 1023.41 1023.41 1023.45 1023.45 1023.45 1023.45 1023.41
1018.53 1018.77 1018.97 1019.17 1019.37 1019.53 1019.77 1019.93 1020.13 1020.33 1020.41 1020.53 1020.61 1020.73 1020.85 1020.85 1020.93 1020.93 1020.89 1021.01 1021.09 1021.25 1021.37 1021.57 1021.77 1021.93 1022.05 1022.17 1022.49 1022.69 1022.77 1022.81 1022.89 1022.93 1022.93 1022.97 1023.01 1023.13 1023.21 1023.29 1023.33 1023.37 1023.45 1023.53 1023.61 1023.65 1023.69 1023.69 1023.65 1023.65 1023.61 1023.61
1018.69 1018.81 1019.05 1019.25 1019.41 1019.65 1019.93 1020.13 1020.33 1020.53 1020.65 1020.77 1020.97 1021.21 1021.25 1021.25 1021.29 1021.37 1021.33 1021.33 1021.45 1021.61 1021.77 1021.93 1021.97 1022.13 1022.29 1022.45 1022.65 1022.73 1022.81 1022.93 1023.05 1023.09 1023.17 1023.17 1023.25 1023.33 1023.41 1023.53 1023.57 1023.61 1023.69 1023.77 1023.85 1023.89 1023.93 1023.93 1023.93 1023.89 1023.89 1023.85
1018.77 1018.89 1019.13 1019.33 1019.41 1019.69 1019.97 1020.29 1020.49 1020.77 1020.97 1021.13 1021.29 1021.49 1021.57 1021.61 1021.73 1021.85 1021.89 1021.85 1022.01 1022.09 1022.17 1022.29 1022.37 1022.45 1022.49 1022.61 1022.73 1022.85 1022.97 1023.09 1023.21 1023.25 1023.29 1023.37 1023.41 1023.49 1023.61 1023.73 1023.81 1023.89 1023.93 1024.01 1024.09 1024.13 1024.21 1024.21 1024.21 1024.21 1024.25 1024.09
1018.97 1019.09 1019.21 1019.41 1019.53 1019.69 1020.01 1020.33 1020.69 1021.05 1021.33 1021.41 1021.61 1021.73 1021.89 1021.97 1022.17 1022.33 1022.41 1022.41 1022.49 1022.49 1022.61 1022.65 1022.69 1022.69 1022.65 1022.73 1022.85 1023.05 1023.17 1023.29 1023.37 1023.37 1023.41 1023.45 1023.57 1023.69 1023.85 1023.93 1024.01 1024.09 1024.21 1024.25 1024.33 1024.41 1024.45 1024.45 1024.49 1024.61 1024.49 1024.41
1019.21 1019.29 1019.41 1019.61 1019.77 1019.89 1020.17 1020.49 1020.81 1021.21 1021.57 1021.73 1021.89 1021.97 1022.17 1022.41 1022.57 1022.69 1022.77 1022.81 1022.77 1022.85 1022.89 1023.01 1023.01 1022.97 1022.85 1022.85 1023.01 1023.17 1023.33 1023.45 1023.53 1023.53 1023.61 1023.73 1023.85 1024.01 1024.13 1024.25 1024.49 1024.57 1024.53 1024.53 1024.61 1024.65 1024.69 1024.77 1024.85 1024.81 1024.77 1024.61
1019.41 1019.49 1019.65 1019.81 1019.97 1020.21 1020.41 1020.65 1020.97 1021.37 1021.73 1021.97 1022.13 1022.33 1022.49 1022.69 1022.81 1022.89 1023.01 1023.01 1023.05 1023.05 1023.13 1023.29 1023.33 1023.29 1023.17 1023.09 1023.25 1023.41 1023.57 1023.69 1023.69 1023.73 1023.85 1023.97 1024.09 1024.25 1024.41 1024.65 1024.81 1024.89 1025.01 1025.01 1024.93 1025.01 1025.09 1025.13 1025.13 1025.05 1024.97 1024.85
1019.57 1019.73 1019.89 1020.09 1020.29 1020.45 1020.69 1020.89 1021.13 1021.41 1021.81 1022.13 1022.33 1022.57 1022.69 1022.81 1022.93 1023.05 1023.21 1023.21 1023.29 1023.33 1023.41 1023.61 1023.69 1023.69 1023.69 1023.65 1023.73 1023.93 1024.13 1024.13 1024.05 1024.09 1024.17 1024.29 1024.45 1024.61 1024.77 1024.89 1025.01 1025.09 1025.21 1025.29 1025.33 1025.33 1025.37 1025.37 1025.37 1025.29 1025.25 1025.17
1019.69 1019.93 1020.09 1020.33 1020.49 1020.65 1020.85 1021.13 1021.37 1021.61 1021.89 1022.21 1022.49 1022.69 1022.81 1022.93 1022.97 1023.17 1023.29 1023.41 1023.49 1023.65 1023.65 1023.81 1024.01 1024.09 1024.09 1024.13 1024.25 1024.37 1024.53 1024.65 1024.65 1024.65 1024.73 1024.81 1024.89 1024.97 1024.97 1025.05 1025.21 1025.21 1025.29 1025.45 1025.41 1025.49 1025.57 1025.53 1025.53 1025.49 1025.45 1025.37
1019.85 1019.97 1020.17 1020.41 1020.65 1020.81 1021.13 1021.25 1021.57 1021.85 1022.01 1022.25 1022.53 1022.73 1022.85 1022.97 1023.05 1023.21 1023.37 1023.53 1023.61 1023.77 1023.85 1023.93 1024.13 1024.33 1024.37 1024.37 1024.53 1024.77 1024.77 1024.89 1024.89 1024.93 1024.97 1025.01 1025.09 1025.21 1025.25 1025.33 1025.41 1025.45 1025.45 1025.49 1025.57 1025.57 1025.65 1025.69 1025.65 1025.65 1025.61 1025.57
1020.01 1020.13 1020.33 1020.53 1020.77 1020.81 1021.29 1021.41 1021.61 1021.93 1022.17 1022.33 1022.49 1022.65 1022.85 1022.89 1023.13 1023.33 1023.45 1023.61 1023.77 1023.93 1024.05 1024.13 1024.33 1024.49 1024.65 1024.61 1024.77 1025.01 1024.93 1025.01 1025.13 1025.09 1025.13 1025.17 1025.29 1025.41 1025.37 1025.53 1025.65 1025.69 1025.73 1025.73 1025.65 1025.73 1025.77 1025.81 1025.81 1025.77 1025.81 1025.77
1020.13 1020.37 1020.49 1020.69 1020.89 1021.09 1021.33 1021.49 1021.69 1022.01 1022.21 1022.45 1022.57 1022.73 1022.89 1023.05 1023.25 1023.37 1023.57 1023.81 1023.93 1024.13 1024.21 1024.33 1024.53 1024.69 1024.77 1024.89 1025.05 1025.21 1025.17 1025.13 1025.25 1025.29 1025.33 1025.37 1025.45 1025.45 1025.57 1025.61 1025.77 1025.85 1025.93 1025.93 1025.93 1025.85 1025.93 1025.97 1025.93 1025.93 1025.97 1025.97
1020.29 1020.49 1020.65 1020.81 1020.97 1021.21 1021.41 1021.57 1021.85 1022.05 1022.29 1022.45 1022.69 1022.85 1022.97 1023.09 1023.29 1023.57 1023.77 1023.89 1024.13 1024.33 1024.33 1024.53 1024.65 1024.73 1024.89 1025.05 1025.17 1025.25 1025.29 1025.29 1025.25 1025.37 1025.45 1025.45 1025.53 1025.65 1025.69 1025.77 1025.85 1025.97 1026.09 1026.17 1026.17 1026.05 1026.09 1026.09 1026.09 1026.09 1026.09 1026.09
1020.29 1020.57 1020.69 1020.93 1021.09 1021.33 1021.53 1021.73 1021.97 1022.13 1022.29 1022.53 1022.69 1022.89 1023.05 1023.21 1023.37 1023.57 1023.77 1024.05 1024.33 1024.33 1024.45 1024.61 1024.77 1024.85 1024.97 1025.09 1025.29 1025.29 1025.17 1025.45 1025.37 1025.41 1025.57 1025.65 1025.69 1025.69 1025.77 1025.85 1026.01 1026.05 1026.09 1026.17 1026.25 1026.25 1026.13 1026.21 1026.25 1026.33 1026.29 1026.29
1020.33 1020.61 1020.73 1021.01 1021.21 1021.41 1021.57 1021.85 1022.01 1022.17 1022.37 1022.57 1022.73 1022.93 1023.13 1023.29 1023.45 1023.69 1023.93 1024.09 1024.33 1024.49 1024.61 1024.73 1024.85 1024.89 1025.17 1025.17 1025.29 1025.45 1025.33 1025.57 1025.45 1025.53 1025.45 1025.57 1025.65 1025.69 1025.77 1025.89 1026.09 1026.01 1026.01 1026.17 1026.29 1026.37 1026.29 1026.33 1026.45 1026.41 1026.49 1026.45
1020.41 1020.61 1020.81 1021.09 1021.25 1021.45 1021.69 1021.85 1022.01 1022.21 1022.37 1022.57 1022.81 1023.01 1023.17 1023.33 1023.53 1023.73 1024.01 1024.17 1024.41 1024.53 1024.69 1024.77 1024.89 1025.05 1025.17 1025.17 1025.37 1025.45 1025.45 1025.41 1025.57 1025.57 1025.73 1025.85 1025.85 1025.93 1025.89 1025.97 1026.09 1026.17 1026.05 1026.09 1026.25 1026.37 1026.37 1026.53 1026.45 1026.45 1026.53 1026.49
1020.45 1020.65 1020.89 1021.09 1021.25 1021.49 1021.69 1021.81 1022.01 1022.17 1022.41 1022.61 1022.85 1023.05 1023.21 1023.41 1023.61 1023.77 1023.93 1024.21 1024.37 1024.53 1024.69 1024.77 1024.85 1025.01 1025.17 1025.25 1025.37 1025.45 1025.49 1025.49 1025.61 1025.65 1025.73 1025.81 1025.97 1025.93 1025.97 1025.93 1026.01 1026.21 1026.25 1026.17 1026.25 1026.37 1026.41 1026.53 1026.49 1026.61 1026.61 1026.57
1020.45 1020.73 1020.93 1021.13 1021.33 1021.53 1021.69 1021.89 1022.05 1022.25 1022.49 1022.69 1022.93 1023.09 1023.29 1023.41 1023.61 1023.77 1023.97 1024.13 1024.33 1024.49 1024.61 1024.77 1024.85 1024.93 1025.05 1025.25 1025.37 1025.53 1025.53 1025.41 1025.53 1025.53 1025.61 1025.69 1025.77 1025.81 1025.85 1025.81 1025.97 1026.01 1025.97 1026.17 1026.49 1026.41 1026.53 1026.57 1026.53 1026.65 1026.65 1026.65
1020.49 1020.81 1021.01 1021.21 1021.41 1021.61 1021.73 1021.93 1022.09 1022.33 1022.57 1022.77 1022.97 1023.13 1023.25 1023.45 1023.57 1023.73 1023.93 1024.09 1024.21 1024.41 1024.57 1024.69 1024.77 1024.89 1024.97 1025.25 1025.41 1025.41 1025.53 1025.45 1025.57 1025.57 1025.53 1025.69 1025.65 1025.89 1026.01 1026.05 1026.13 1026.09 1026.05 1026.05 1026.09 1026.33 1026.57 1026.41 1026.53 1026.65 1026.61 1026.73
1020.61 1020.85 1021.13 1021.33 1021.53 1021.69 1021.89 1022.05 1022.25 1022.45 1022.61 1022.81 1022.97 1023.09 1023.25 1023.41 1023.53 1023.69 1023.93 1024.09 1024.25 1024.33 1024.53 1024.61 1024.69 1024.81 1025.05 1025.17 1025.33 1025.41 1025.45 1025.53 1025.41 1025.57 1025.61 1025.85 1025.81 1025.65 1025.85 1026.01 1025.97 1026.29 1026.09 1026.25 1026.17 1026.29 1026.45 1026.53 1026.53 1026.41 1026.49 1026.49
1020.81 1021.09 1021.29 1021.49 1021.65 1021.85 1022.01 1022.17 1022.37 1022.53 1022.69 1022.85 1023.01 1023.17 1023.29 1023.45 1023.65 1023.77 1023.93 1024.09 1024.25 1024.33 1024.49 1024.65 1024.73 1024.85 1025.01 1025.21 1025.21 1025.25 1025.37 1025.41 1025.49 1025.49 1025.53 1025.73 1025.89 1025.81 1025.61 1025.77 1025.73 1026.01 1026.13 1026.01 1026.09 1026.17 1026.21 1026.25 1026.37 1026.29 1026.21 1026.25
1020.93 1021.25 1021.45 1021.65 1021.85 1022.01 1022.17 1022.37 1022.49 1022.65 1022.77 1022.93 1023.09 1023.25 1023.37 1023.57 1023.69 1023.81 1023.97 1024.17 1024.29 1024.37 1024.49 1024.61 1024.69 1024.81 1025.01 1025.17 1025.21 1025.21 1025.33 1025.33 1025.65 1025.65 1025.61 1025.45 1025.85 1025.85 1025.73 1025.69 1025.69 1025.65 1025.93 1026.05 1025.89 1025.93 1025.93 1025.93 1026.13 1026.09 1026.21 1026.29
1021.17 1021.41 1021.69 1021.93 1022.05 1022.21 1022.41 1022.61 1022.73 1022.85 1022.97 1023.09 1023.21 1023.33 1023.45 1023.57 1023.73 1023.81 1023.97 1024.13 1024.29 1024.37 1024.45 1024.57 1024.69 1024.81 1024.93 1025.09 1025.13 1025.17 1025.21 1025.29 1025.49 1025.61 1025.65 1025.53 1025.57 1026.05 1026.01 1025.81 1025.81 1025.81 1025.93 1025.89 1025.97 1025.85 1025.65 1025.77 1025.81 1026.05 1026.25 1026.29
1021.49 1021.65 1021.77 1021.85 1022.21 1022.33 1022.61 1022.81 1022.85 1023.05 1023.13 1023.25 1023.29 1023.41 1023.49 1023.61 1023.73 1023.81 1023.93 1024.05 1024.21 1024.29 1024.41 1024.49 1024.61 1024.69 1024.93 1025.01 1025.13 1025.09 1025.09 1025.17 1025.37 1025.29 1025.41 1025.49 1025.57 1025.57 1025.81 1026.09 1026.05 1026.13 1025.97 1025.93 1025.85 1025.65 1025.53 1025.73 1025.89 1025.85 1025.89 1025.97
1021.93 1022.13 1022.33 1022.57 1022.61 1022.57 1022.81 1022.81 1022.97 1023.05 1023.29 1023.45 1023.65 1023.77 1023.85 1023.89 1023.97 1024.01 1024.05 1024.17 1024.25 1024.33 1024.41 1024.53 1024.65 1024.77 1024.93 1025.09 1025.13 1025.09 1024.93 1025.05 1025.21 1025.45 1025.49 1025.49 1025.73 1025.57 1025.57 1025.61 1025.97 1026.09 1026.13 1025.73 1025.45 1025.45 1025.53 1025.41 1025.45 1025.45 1025.49 1025.45
1021.89 1022.13 1022.33 1022.41 1022.61 1022.89 1023.09 1023.17 1023.29 1023.49 1023.93 1024.17 1024.25 1024.33 1024.41 1024.53 1024.57 1024.69 1024.81 1024.89 1024.97 1024.97 1024.93 1024.81 1024.81 1024.85 1024.85 1025.09 1025.09 1025.09 1025.25 1025.33 1025.41 1025.49 1025.65 1025.73 1025.61 1025.93 1025.73 1025.57 1025.65 1025.93 1025.93 1025.77 1025.53 1025.45 1025.09 1024.85 1024.89 1024.89 1025.05 1025.17
1021.89 1022.21 1022.41 1022.37 1022.73 1022.77 1023.13 1023.73 1023.89 1024.01 1024.21 1024.21 1024.33 1024.53 1024.65 1024.65 1024.69 1024.77 1024.89 1025.01 1025.05 1025.13 1025.25 1025.33 1025.37 1025.41 1025.45 1025.41 1025.41 1025.25 1025.17 1025.33 1025.37 1025.53 1025.57 1025.73 1025.49 1025.49 1025.93 1025.81 1025.89 1025.85 1025.85 1025.37 1025.89 1025.89 1025.85 1025.37 1024.45 1024.21 1024.97 1025.09
1022.81 1022.69 1022.85 1022.89 1022.97 1023.21 1023.45 1024.17 1024.41 1024.45 1024.65 1024.69 1024.65 1025.09 1025.25 1025.25 1025.21 1025.13 1025.17 1025.21 1025.21 1025.21 1025.29 1025.33 1025.41 1025.49 1025.53 1025.57 1025.69 1025.65 1025.41 1025.37 1025.33 1025.57 1025.65 1025.77 1025.69 1025.69 1025.37 1025.49 1025.41 1025.81 1025.93 1025.93 1025.57 1025.61 1025.33 1026.09 1026.17 1024.97 1023.93 1024.05
1023.21 1022.89 1022.85 1023.13 1023.21 1023.69 1024.01 1024.45 1025.05 1025.17 1025.57 1025.89 1025.93 1025.93 1026.09 1026.41 1026.13 1025.97 1025.97 1025.97 1025.93 1025.77 1025.69 1025.61 1025.49 1025.45 1025.45 1025.49 1025.65 1025.77 1025.77 1025.73 1025.81 1025.85 1025.77 1025.81 1025.73 1025.65 1025.37 1025.33 1025.33 1025.73 1026.05 1025.89 1025.65 1025.25 1025.93 1025.97 1025.41 1025.01 1024.33 1024.81
1024.09 1024.33 1024.45 1024.53 1024.65 1025.17 1025.77 1026.49 1026.73 1027.17 1027.41 1027.09 1027.05 1027.25 1027.21 1026.89 1026.85 1026.73 1026.65 1026.65 1026.53 1026.45 1026.29 1026.21 1026.13 1025.93 1025.73 1025.65 1025.73 1025.77 1025.85 1025.97 1025.97 1025.97 1026.05 1026.21 1026.21 1026.01 1025.85 1025.57 1025.49 1025.37 1025.85 1025.85 1025.77 1026.05 1025.69 1025.45 1024.53 1024.41 1025.09 1025.21
1025.01 1025.21 1025.61 1025.93 1026.49 1026.89 1027.21 1027.53 1027.97 1028.05 1027.93 1027.81 1027.81 1027.65 1027.49 1027.57 1027.41 1027.37 1027.29 1027.25 1027.13 1027.01 1026.81 1026.73 1026.65 1026.53 1026.41 1026.29 1026.25 1026.09 1026.05 1026.01 1026.05 1026.09 1026.09 1026.05 1026.05 1026.01 1026.09 1026.13 1025.81 1025.53 1025.29 1025.85 1026.05 1026.01 1025.89 1026.17 1026.33 1026.13 1025.45 1024.93
Wind_Speed
7 8 8 9 8 4 4 4 4 3 5 6 6 4 1 3 4 1 3 4 3 3 3 3 3 3 4 4 4 4 3 3 4 5 6 7 7 8 9 9 9 10 11 12 12 11 11 10 10 9 7 6
9 8 9 8 7 7 5 5 4 1 1 0 6 6 9 8 8 6 2 1 3 3 4 5 7 5 5 4 5 5 4 4 5 6 6 7 8 8 9 9 9 10 11 11 11 11 10 10 10 9 7 5
6 10 10 10 10 10 9 7 8 8 8 10 13 12 11 12 12 13 11 8 5 3 8 11 6 5 6 6 5 5 5 5 5 6 7 7 8 8 9 8 9 10 10 11 11 11 10 10 9 9 6 4
5 8 10 9 12 11 10 9 10 10 11 11 11 11 10 10 9 9 9 13 10 12 11 10 7 5 7 6 6 5 5 5 5 7 7 8 9 9 9 9 9 10 10 10 11 11 10 10 9 6 5 4
5 7 10 8 11 12 11 12 13 12 10 9 9 9 9 9 8 6 6 7 6 9 7 9 8 8 1 7 6 5 5 5 5 7 8 8 9 10 10 10 10 10 10 10 11 11 10 9 6 5 5 5
4 5 7 6 5 6 9 9 10 8 6 6 6 8 7 6 6 6 5 5 6 6 7 8 11 8 5 6 5 5 5 5 6 8 9 9 9 10 11 11 6 6 8 11 10 10 10 6 5 5 5 5
5 5 5 5 6 6 7 8 8 7 6 5 6 5 5 5 5 5 5 5 6 5 9 9 12 12 11 4 5 5 5 5 7 8 8 10 11 11 11 7 5 5 5 5 9 8 6 5 5 5 5 5
5 5 5 5 5 6 6 6 6 7 6 6 5 5 5 5 5 5 5 6 8 7 6 6 9 10 9 11 12 11 8 10 11 12 11 11 10 7 5 5 5 5 5 5 5 5 5 5 5 5 4 5
5 5 6 5 5 6 6 6 5 6 6 5 6 4 5 4 4 5 4 4 4 5 4 5 5 5 5 5 6 7 6 5 4 5 5 5 6 4 5 5 4 4 5 3 4 4 4 4 4 5 5 5
5 6 6 5 5 6 5 6 6 5 5 6 5 4 4 4 5 5 4 4 4 5 5 5 5 5 4 6 5 4 5 5 4 4 4 4 5 4 4 5 4 3 3 4 4 3 3 4 3 4 5 5
5 5 5 5 5 7 5 5 6 5 5 4 5 5 4 5 4 4 4 4 4 4 4 4 4 4 4 4 5 3 5 3 3 4 4 5 4 3 4 4 3 3 3 3 3 3 3 3 3 4 4 5
5 4 5 5 5 5 5 6 5 5 5 5 5 4 4 4 4 4 5 3 3 3 3 3 3 2 3 3 3 3 3 4 3 4 3 4 3 4 3 4 3 3 3 3 3 3 2 3 3 3 4 4
5 5 5 5 5 5 5 5 5 5 5 5 4 4 4 4 5 4 4 3 2 2 2 1 1 1 1 2 2 2 2 2 4 3 3 3 3 3 3 3 3 3 2 2 2 3 2 2 2 2 4 4
6 5 6 4 5 5 4 5 5 4 5 4 4 4 4 3 4 4 4 3 2 2 1 0 0 0 1 1 1 1 2 1 3 4 3 3 3 3 3 4 2 3 2 2 1 1 2 1 0 2 2 3
5 5 5 5 5 5 5 5 5 5 5 4 4 4 4 4 3 4 3 3 3 2 1 1 0 1 1 1 1 0 2 1 2 3 4 4 4 3 3 3 1 3 3 2 1 0 1 0 0 1 2 2
5 5 5 5 5 5 5 4 5 4 4 4 3 4 4 3 4 4 3 3 3 3 2 2 1 1 0 2 1 1 2 3 2 3 3 2 2 2 3 2 2 2 3 2 1 1 1 0 0 1 1 1
4 5 4 5 4 5 4 4 4 4 4 4 3 3 4 4 4 3 4 4 4 3 3 3 2 1 1 2 2 1 2 3 3 3 3 2 2 3 2 2 1 1 2 2 0 0 1 1 2 1 1 2
5 4 4 4 4 4 4 4 4 3 3 4 4 3 4 4 4 3 3 4 3 3 3 3 3 3 3 3 1 1 2 3 3 3 3 2 2 1 2 2 0 0 0 1 0 0 1 1 2 1 2 2
4 3 4 4 4 4 3 3 3 3 4 3 4 4 3 3 4 3 3 3 4 3 3 3 4 3 4 1 1 2 1 3 2 3 3 3 3 1 1 0 0 0 2 1 2 2 0 2 2 1 3 2
4 3 3 3 3 3 3 3 2 3 3 3 3 3 3 3 3 3 3 3 3 4 3 4 4 4 2 2 2 2 2 2 3 2 2 1 2 3 1 0 1 0 2 1 3 2 1 2 1 3 3 3
4 3 3 3 3 3 2 2 2 2 2 3 3 2 3 2 2 3 3 3 3 4 4 4 4 3 3 3 3 3 3 3 2 3 3 1 1 3 3 3 4 2 1 3 3 3 3 3 2 4 5 4
4 4 3 3 3 2 2 2 2 2 2 2 2 2 2 2 3 3 3 3 3 3 3 3 3 3 3 3 3 3 3 3 1 1 2 3 1 2 3 3 4 4 3 3 3 3 4 5 3 4 4 4
5 5 4 3 2 2 2 1 1 2 2 2 2 2 2 3 3 3 3 4 3 4 4 3 3 3 3 3 3 3 3 2 1 1 1 3 3 0 1 3 3 4 2 3 3 3 5 4 4 3 2 2
5 5 3 3 2 1 1 0 1 1 1 1 2 2 2 2 3 3 3 4 4 4 4 3 4 4 3 3 3 4 3 4 3 4 3 3 3 3 1 1 1 1 1 1 2 4 5 4 3 4 4 4
4 4 3 3 1 0 0 0 0 0 0 0 1 1 1 1 1 1 2 2 3 4 3 3 2 2 2 3 3 4 6 4 4 3 4 3 2 4 3 3 1 1 2 1 4 3 4 6 4 5 4 6
4 3 3 3 1 1 1 1 2 4 6 4 4 4 4 4 4 4 4 4 4 3 2 1 1 3 3 3 4 4 2 1 2 2 3 2 1 1 3 3 2 4 3 1 4 3 5 4 5 6 7 6
3 2 3 3 2 3 3 3 4 5 3 4 5 5 5 4 4 4 4 4 3 3 3 3 3 3 3 1 1 2 3 2 3 3 4 4 4 2 0 3 2 3 4 3 1 1 2 5 3 4 2 3
4 4 5 5 6 6 8 6 6 6 9 9 9 11 10 10 8 6 6 6 4 3 3 3 3 3 3 3 2 2 3 3 4 3 3 3 4 2 3 1 3 3 4 4 3 3 4 3 1 6 5 4
7 8 8 6 7 7 7 9 11 11 11 10 9 10 12 11 11 11 11 10 10 8 7 5 4 3 2 2 2 1 2 3 3 3 3 3 3 4 5 5 3 1 3 4 4 5 1 3 1 5 5 3
11 11 10 10 10 9 9 10 11 11 9 9 10 9 6 11 12 11 11 11 11 11 9 9 9 7 5 4 3 1 0 2 3 3 3 2 3 4 4 4 3 3 1 5 5 3 3 3 5 2 2 2
12 13 12 13 12 11 10 9 8 6 6 7 7 7 10 9 11 12 12 12 12 11 11 10 10 10 9 8 7 4 3 3 3 3 2 2 2 4 3 1 5 6 6 0 3 4 6 3 2 2 1 7
Wind_Direction
163 165 156 157 180 202 171 171 153 189 209 188 205 209 213 47 37 53 178 171 165 153 154 137 144 124 148 144 137 128 133 115 108 103 98 99 103 102 98 99 99 91 83 77 72 67 61 58 52 49 52 53
156 150 146 146 103 87 88 104 131 165 205 249 42 38 46 47 38 13 91 153 156 140 159 127 151 161 147 140 134 144 134 116 107 100 99 103 103 103 98 101 97 89 82 76 69 61 56 51 49 45 51 54
122 127 140 128 107 90 84 78 62 48 51 63 62 48 42 52 45 34 33 47 99 155 53 30 55 120 156 149 151 141 130 112 104 105 102 102 104 100 99 96 91 86 81 75 67 61 53 46 43 43 38 35
108 119 124 121 110 105 101 85 63 57 73 68 67 58 46 49 51 40 30 40 42 48 47 38 38 22 160 155 147 141 123 116 113 107 103 106 102 100 97 94 89 84 78 69 62 55 47 40 38 34 21 21
103 117 115 113 112 111 103 89 79 70 60 69 60 67 54 49 51 49 39 40 45 45 43 33 21 10 289 155 144 138 130 122 119 107 102 100 102 103 95 86 83 85 75 64 59 52 45 41 38 23 21 17
99 103 103 99 88 92 92 86 85 76 72 70 72 60 61 60 55 57 47 44 48 51 45 26 16 10 319 151 138 145 136 129 124 106 99 94 96 89 78 67 49 38 49 55 56 49 44 40 32 23 22 25
98 97 97 91 90 86 85 96 93 95 83 73 74 76 78 75 70 64 58 51 51 65 55 39 27 26 17 79 110 97 99 122 114 106 95 88 85 78 70 60 54 54 43 28 35 37 34 34 25 20 25 22
101 99 94 89 89 92 93 90 101 102 96 89 84 85 86 88 86 71 63 55 50 48 56 41 28 25 32 43 49 51 46 42 54 65 69 74 72 66 67 69 58 65 51 40 38 40 35 31 21 28 19 17
119 112 96 97 96 96 100 98 94 101 105 102 101 91 95 97 91 83 73 67 60 54 58 59 39 22 36 46 49 41 56 45 42 53 60 53 57 60 76 74 65 77 64 42 49 48 32 32 26 21 18 12
137 126 122 118 114 100 93 107 101 100 112 113 108 113 113 98 90 86 80 68 70 56 56 62 50 32 28 50 52 37 67 48 58 63 65 72 71 65 70 81 84 74 95 83 57 52 38 35 30 21 16 17
121 124 123 120 126 120 114 114 114 112 109 112 122 121 120 115 104 95 94 78 71 62 55 70 60 41 32 56 51 29 76 60 50 78 78 77 82 79 85 76 82 85 74 85 88 55 46 33 30 26 19 13
118 117 117 121 110 101 132 122 121 121 118 114 105 107 97 97 103 113 99 81 76 70 64 74 61 48 39 43 46 28 76 94 60 68 76 88 74 80 77 92 66 75 71 59 75 77 36 24 25 18 13 9
125 122 114 117 120 130 135 122 127 130 125 113 110 98 105 117 112 96 103 113 103 79 87 62 51 38 23 29 20 43 47 91 102 75 79 88 93 88 93 89 82 80 61 60 50 91 60 29 10 6 7 12
136 142 135 137 133 141 121 126 134 131 122 125 121 116 111 105 119 131 137 131 111 127 170 82 35 30 356 8 358 67 115 86 118 122 86 82 87 96 101 98 98 105 96 77 71 62 101 65 14 8 19 1
143 145 145 143 138 132 131 137 130 124 124 119 121 126 120 110 114 123 126 137 143 135 152 168 56 299 10 328 320 123 152 134 136 140 142 146 143 133 120 117 102 121 119 124 102 80 104 289 23 4 355 5
146 153 147 143 137 134 132 134 131 130 131 128 123 129 129 124 125 128 129 140 145 163 170 196 198 302 358 259 270 198 158 134 111 117 103 96 102 117 116 112 74 92 122 127 148 140 186 189 209 284 341 340
148 145 141 142 142 135 133 132 132 139 141 131 134 137 138 142 143 145 151 157 162 167 176 183 192 238 238 246 245 204 148 118 107 96 99 77 89 74 72 81 58 60 84 127 228 136 187 163 236 245 259 293
148 149 137 129 129 132 131 135 142 139 131 133 137 144 147 153 159 148 151 154 161 160 169 184 193 201 240 241 216 147 136 128 134 124 120 140 111 100 105 148 266 89 266 294 63 347 317 188 231 224 252 247
151 141 141 135 134 137 143 141 139 128 128 136 143 146 158 156 156 161 160 160 160 172 172 185 204 207 219 206 149 160 164 141 123 137 166 147 133 86 73 74 19 141 234 285 284 270 355 254 268 241 229 255
141 139 128 123 124 124 133 129 123 125 138 142 143 161 155 164 168 163 170 164 156 172 188 196 207 217 193 178 154 162 152 129 159 154 145 107 137 163 231 119 264 70 267 298 277 283 279 262 267 244 251 248
109 105 109 112 121 126 124 116 124 124 126 137 148 157 173 163 168 177 174 173 173 176 189 198 208 211 190 170 170 175 176 177 170 162 169 167 126 159 199 185 229 251 210 249 249 273 279 255 233 237 231 236
109 101 97 100 112 117 117 117 124 124 129 154 162 165 184 157 183 182 176 169 170 186 186 193 201 199 186 169 168 177 170 198 121 141 158 210 222 169 163 202 211 241 242 228 260 273 262 263 235 239 237 244
91 88 72 66 77 92 84 73 76 117 134 165 172 185 175 172 190 182 167 172 170 180 193 188 202 200 194 175 178 170 186 194 159 132 137 201 240 86 199 202 211 222 210 246 269 269 263 254 248 251 245 233
77 79 87 99 60 56 39 48 95 57 161 161 179 199 180 186 196 185 177 181 179 186 191 196 203 208 180 185 167 180 197 227 193 202 207 228 206 245 275 195 192 156 166 228 247 257 268 260 266 271 236 232
67 57 31 27 23 61 166 211 117 234 296 85 345 8 337 288 261 213 189 179 172 194 195 208 198 183 190 175 179 195 215 209 209 206 198 196 188 210 253 287 165 203 142 247 300 283 274 291 240 238 229 230
83 113 143 144 173 131 31 31 16 357 9 14 27 26 20 17 11 9 6 8 357 355 340 305 231 206 204 174 203 215 223 199 196 191 190 159 245 192 201 250 196 202 127 282 223 283 318 320 301 240 225 226
71 75 64 94 113 104 81 61 77 77 34 50 53 39 36 33 32 35 34 29 37 36 25 12 1 342 342 299 261 210 233 211 218 206 207 191 204 251 249 230 238 194 188 209 119 130 13 301 340 328 325 268
24 77 90 79 90 74 78 59 30 44 33 23 35 35 27 23 17 30 38 33 38 53 50 47 26 360 15 354 356 313 281 243 241 218 213 195 222 187 276 255 279 176 201 141 136 300 217 236 67 312 287 266
24 36 37 34 45 48 42 32 29 28 23 23 30 36 30 22 22 28 32 25 24 22 18 24 29 38 21 27 14 4 317 307 296 275 235 219 205 198 205 264 251 330 163 208 220 159 68 324 356 233 261 344
42 48 49 44 41 37 42 44 28 27 14 17 28 31 28 33 31 30 33 30 27 24 22 20 13 10 13 15 18 37 355 298 324 326 330 295 264 260 246 238 281 285 262 214 230 216 218 178 222 258 264 29
44 50 52 60 65 64 58 64 45 32 31 35 35 39 40 37 35 33 34 30 29 25 25 27 22 20 19 21 14 5 10 349 326 302 283 276 217 245 271 227 250 248 254 320 270 233 243 244 205 139 310 253